This is the latest recevied weather packets stored in our database for station/object JS2WAD-13. If no packets are shown the sender has not sent any weather packets the latest 10 day(s).
| Time | Temp. | Humidity | Pressure | Rain* | Wind** | Luminosity | Snow |
|---|---|---|---|---|---|---|---|
| 1778088379 | 17.78° C | 88% | 907.8 hPa | 0 mm | - | 0 W/m² | - |
| 1778088079 | 17.78° C | 88% | 907.8 hPa | 0 mm | - | 0 W/m² | - |
| 1778087779 | 17.78° C | 89% | 907.8 hPa | 0 mm | - | 0 W/m² | - |
| 1778087479 | 17.78° C | 89% | 907.9 hPa | 0 mm | - | 0 W/m² | - |
| 1778087179 | 17.78° C | 89% | 908 hPa | 0 mm | - | 0 W/m² | - |
| 1778086879 | 17.78° C | 88% | 908.1 hPa | 0 mm | - | 0 W/m² | - |
| 1778086579 | 17.78° C | 88% | 908 hPa | 0 mm | - | 0 W/m² | - |
| 1778086279 | 17.78° C | 89% | 908 hPa | 0 mm | - | 0 W/m² | - |
| 1778085979 | 17.78° C | 88% | 907.9 hPa | 0 mm | - | 0 W/m² | - |
| 1778085679 | 17.78° C | 87% | 907.9 hPa | 0 mm | - | 0 W/m² | - |
| 1778085379 | 17.78° C | 88% | 908 hPa | 0 mm | - | 0 W/m² | - |
| 1778085079 | 17.78° C | 85% | 908 hPa | 0 mm | - | 0 W/m² | - |
| 1778084779 | 17.78° C | 87% | 908 hPa | 0 mm | - | 0 W/m² | - |
| 1778084479 | 17.78° C | 85% | 908.1 hPa | 0 mm | - | 0 W/m² | - |
| 1778084179 | 17.78° C | 86% | 908.2 hPa | 0 mm | - | 0 W/m² | - |
| 1778083879 | 17.78° C | 88% | 908.3 hPa | 0 mm | - | 0 W/m² | - |
| 1778083579 | 17.78° C | 88% | 908.4 hPa | 0 mm | - | 0 W/m² | - |
| 1778083279 | 17.78° C | 87% | 908.2 hPa | 0 mm | - | 0 W/m² | - |
| 1778082979 | 17.78° C | 88% | 908.3 hPa | 0 mm | - | 0 W/m² | - |
| 1778082679 | 17.78° C | 88% | 908.5 hPa | 0 mm | - | 0 W/m² | - |
| 1778082379 | 17.78° C | 88% | 908.5 hPa | 0 mm | - | 0 W/m² | - |
| 1778082079 | 17.78° C | 87% | 908.6 hPa | 0 mm | - | 0 W/m² | - |
| 1778081779 | 17.78° C | 87% | 908.7 hPa | 0 mm | - | 0 W/m² | - |
| 1778081479 | 17.78° C | 88% | 908.7 hPa | 0 mm | - | 0 W/m² | - |
| 1778081179 | 17.78° C | 87% | 908.8 hPa | 0 mm | - | 0 W/m² | - |
* Rain latest hour (hover to see other rain measurements)
** Current wind speed in m/s (hover to see current wind gust speed)